Hourly Data Report for October 31, 2019

All times are specified in Local Standard Time (LST). Add 1 hour to adjust for Daylight Saving Time where and when it is observed.

SEPT-ILES
QUEBEC
Current Station Operator: ECCC - MSC

50°13'00.000" N
66°15'00.000" W
52.60 m
7047914
71279
XZV

Download Data

Hourly Data (October 2019)
Hourly Data Report for October 31, 2019
TIME Temp Definition
°C
Dew Point Definition
°C
Rel Hum Definition
%
Wind Dir Definition
10's deg

Wind Spd Definition
km/h
Visibility Definition
km
Stn Press Definition
kPa
Hmdx Definition


Wind Chill Definition


Weather Definition


00:00 2.1 -0.1 85 35 6   101.59     LegendNANA
01:00 2.2 -0.1 84 1 7   101.56     LegendNANA
02:00 1.7 -0.3 86 1 7   101.57     LegendNANA
03:00 1.7 -0.3 87 2 7   101.50     LegendNANA
04:00 1.7 -0.2 87 2 8   101.49     LegendNANA
05:00 1.7 -0.1 88 4 6   101.39     LegendNANA
06:00 1.6 0.2 90 4 8   101.31     LegendNANA
07:00 1.7 0.9 94 5 5   101.25     LegendNANA
08:00 3.0 2.6 97 7 6   101.13     LegendNANA
09:00 3.8 3.2 96 10 6   101.02     LegendNANA
10:00 4.0 3.4 96 10 13   100.90     LegendNANA
11:00 3.8 3.2 96 7 15   100.67     LegendNANA
12:00 2.7 2.3 97 5 13   100.48     LegendNANA
13:00 3.4 2.9 97 7 15   100.30     LegendNANA
14:00 3.6 3.0 96 7 15   100.16     LegendNANA
15:00 3.5 3.0 97 7 14   100.13     LegendNANA
16:00 3.4 2.9 97 6 14   100.01     LegendNANA
17:00 3.4 2.9 96 4 12   100.00     LegendNANA
18:00 3.2 2.8 97 1 8   99.95     LegendNANA
19:00 3.1 2.6 96 1 7   99.88     LegendNANA
20:00 3.1 2.6 96 1 8   99.83     LegendNANA
21:00 3.3 2.7 96 36 10   99.81     LegendNANA
22:00 3.5 2.7 95 1 11   99.72     LegendNANA
23:00 3.5 2.5 93 1 13   99.63     LegendNANA

Notes on Data Quality.

Legend

  • E = Estimated
  • M = Missing
  • NA = Not Available
Date modified: